Wind_Speed
23 21 20 20 21 22 19 16 14 13 12 12 14 12 11 11 10 11 12 13 9 8 6 5 7 9 10 8 7 7 12 12 10
25 23 22 21 17 18 17 16 14 12 11 10 11 12 11 14 11 11 13 13 12 9 6 6 4 6 6 7 7 8 9 7 7
24 23 23 23 22 19 14 11 11 9 9 9 9 10 11 8 9 10 12 11 12 11 9 6 4 3 2 3 4 3 3 2 3
21 21 21 21 20 19 16 16 14 12 11 10 10 10 13 9 8 11 12 14 14 13 10 10 6 4 3 2 2 1 1 2 2
21 18 21 19 17 16 15 14 12 13 12 11 12 12 13 10 12 10 13 13 16 14 10 8 10 8 6 5 4 3 3 3 3
22 22 21 19 18 16 15 14 13 11 10 10 15 15 13 10 12 12 12 13 13 15 13 10 9 9 8 8 8 7 6 6 5
21 23 23 22 21 19 18 18 16 18 17 15 13 14 13 12 12 14 14 13 15 15 13 12 11 10 11 9 9 10 10 9 9
15 16 19 20 22 22 21 20 21 20 19 19 18 18 14 12 12 18 23 22 20 18 17 14 14 14 13 11 11 12 13 12 12
16 17 17 19 19 18 19 21 20 21 21 19 18 16 16 17 14 14 18 23 22 19 19 16 13 17 20 14 11 11 10 13 14
16 17 18 18 18 19 19 17 18 17 16 16 15 17 15 15 15 12 16 19 23 22 23 22 16 16 21 16 13 13 8 10 13
16 16 17 18 18 19 19 18 18 17 16 16 15 13 13 12 12 11 14 17 21 24 23 24 19 19 23 22 20 17 14 10 9
16 16 17 16 16 17 18 18 18 19 18 16 15 13 12 11 12 12 12 12 16 20 22 23 24 22 23 23 22 22 16 12 15
15 16 16 15 16 17 17 19 18 19 20 18 16 13 10 12 12 13 14 16 16 16 20 20 22 23 23 22 22 24 23 22 26
15 14 14 14 15 16 16 16 17 18 20 17 15 11 9 11 10 12 13 16 17 18 17 18 19 21 22 21 22 23 24 24 26
12 13 13 13 13 14 15 13 14 14 18 14 14 8 6 11 10 11 12 15 17 18 18 19 18 18 18 20 21 23 24 25 24
11 11 11 11 12 12 13 12 12 13 18 11 11 5 1 5 11 10 12 15 17 17 16 18 18 17 15 18 17 23 25 25 24
11 10 10 10 9 11 12 13 12 9 13 9 8 4 1 4 10 7 10 13 17 15 15 17 16 15 14 16 15 22 24 25 23
9 10 9 9 8 8 9 10 11 9 8 9 6 4 3 14 2 9 8 12 17 15 14 17 15 14 14 14 15 21 24 23 23
7 7 7 7 6 6 7 7 7 7 7 4 4 1 3 3 5 6 17 11 15 17 14 17 15 14 15 13 13 20 24 23 22
5 5 4 4 4 4 4 5 5 5 5 5 5 5 5 10 9 9 13 17 14 15 15 15 15 13 14 13 15 20 21 22 23
Wind_Direction
75 74 79 77 78 74 71 70 69 74 73 69 70 76 67 66 61 65 60 54 46 42 46 74 84 79 81 82 67 94 114 104 94
65 64 64 64 76 83 83 82 83 80 70 74 62 69 59 50 59 56 53 47 39 35 40 39 54 69 78 73 72 95 109 105 99
66 61 60 60 60 59 70 78 76 74 67 67 67 67 68 45 57 54 47 36 30 24 17 17 26 29 34 50 52 102 139 130 115
70 67 62 62 62 62 66 65 68 63 62 61 61 58 56 41 39 49 32 26 18 14 4 7 8 352 317 279 354 21 179 204 228
72 71 64 64 67 64 65 62 68 66 68 60 57 56 36 32 36 29 22 29 17 11 5 351 2 355 337 295 283 281 245 234 247
75 71 70 66 65 63 61 61 60 60 57 66 60 44 26 31 28 11 360 11 15 10 8 358 337 339 345 319 299 275 267 247 238
67 70 69 70 66 66 62 58 57 53 48 44 42 43 28 26 28 5 358 7 11 8 2 5 356 343 325 317 309 284 266 262 251
55 56 55 51 45 48 51 50 47 45 44 43 38 36 35 37 36 2 35 38 40 37 31 17 6 358 353 325 313 304 284 265 259
54 49 45 44 40 37 35 33 31 31 31 31 34 33 29 32 39 34 39 38 39 37 35 33 33 34 29 12 347 302 294 281 272
57 53 49 45 39 38 35 31 30 26 27 26 23 20 23 34 38 31 34 40 39 35 32 31 25 30 31 26 10 10 311 296 289
63 57 51 45 39 35 35 31 30 27 23 21 18 19 21 26 34 28 33 32 34 35 35 31 26 27 30 31 26 33 20 5 312
64 59 51 45 40 38 34 33 29 26 23 21 17 16 19 23 28 27 23 27 27 26 30 31 33 32 30 27 28 30 26 21 19
65 61 53 46 42 39 35 29 25 21 16 13 13 15 20 22 25 26 26 21 19 17 22 22 28 30 30 29 29 31 29 29 27
66 60 54 47 43 39 35 30 25 17 10 7 5 12 23 25 25 24 24 21 21 16 16 16 21 24 29 28 27 29 24 20 20
65 59 52 48 44 38 33 31 26 17 2 358 357 12 31 34 26 24 21 18 19 15 13 12 16 15 19 24 24 22 17 13 13
67 62 54 49 43 36 30 25 19 15 8 356 357 9 32 42 15 14 14 11 10 8 11 11 11 10 10 14 17 16 12 8 6
62 61 52 45 42 34 27 24 13 18 18 0 324 353 234 32 348 8 8 3 2 359 0 2 2 4 4 10 11 9 9 4 1
63 55 48 40 38 29 22 18 15 360 14 27 13 341 355 345 88 335 353 348 352 351 347 350 351 353 352 1 357 0 360 0 355
60 52 48 38 31 21 12 3 0 353 347 347 19 1 300 327 316 323 323 335 335 337 337 339 339 340 342 344 350 350 351 350 349
65 55 46 33 21 359 345 341 334 327 315 313 314 303 282 266 265 296 312 316 320 319 326 320 327 328 333 335 335 340 343 342 342
Height
839 840 838 839 839 839 840 841 841 841 841 842 841 843 842 842 843 844 844 845 845 845 846 845 845 844 845 845 846 846 846 847 848
840 843 842 841 842 841 842 842 842 843 843 843 844 844 845 845 846 846 846 847 847 847 847 848 848 847 847 847 848 848 849 849 849
843 846 846 845 844 844 844 845 844 844 845 846 846 847 847 849 848 849 849 849 849 850 849 849 850 850 850 849 850 850 850 850 851
844 848 848 847 846 847 846 846 847 847 848 848 848 849 849 850 851 850 850 851 851 851 851 850 850 851 851 851 851 851 851 852 852
847 849 849 849 848 849 849 849 848 849 849 850 850 851 852 852 852 852 852 852 852 852 851 852 852 852 852 852 852 852 852 853 853
851 851 851 851 850 850 851 851 851 851 852 852 852 853 855 855 855 853 853 852 852 853 853 853 852 851 852 853 853 853 853 853 854
855 854 854 853 854 854 853 853 854 853 853 853 853 854 856 858 858 855 853 853 853 853 852 852 853 852 852 852 852 853 853 853 854
857 857 856 856 857 857 856 856 855 855 855 855 856 855 856 857 859 857 856 856 855 854 853 852 852 852 851 851 852 852 852 852 853
860 860 860 860 860 861 861 861 859 859 858 858 857 857 858 858 859 860 857 857 856 856 854 853 852 852 852 850 850 850 851 852 852
864 864 864 864 864 864 864 864 863 863 862 862 862 861 860 860 860 860 859 858 857 856 855 854 853 853 852 851 850 849 849 850 851
867 867 868 868 868 867 867 866 865 865 865 865 864 864 864 863 863 862 861 860 858 857 856 855 853 854 853 853 851 849 848 848 848
869 870 870 871 871 871 870 869 869 867 867 866 866 866 866 865 865 864 863 861 861 860 858 856 855 854 854 854 853 850 849 849 848
871 872 873 874 874 873 873 872 871 869 868 868 867 867 867 866 866 866 865 863 862 860 860 859 857 856 855 854 853 851 850 849 847
874 875 876 876 876 875 875 875 874 872 871 870 869 868 867 867 868 868 867 866 865 863 862 860 859 858 856 856 854 852 851 848 847
877 877 878 878 879 878 878 878 877 876 874 872 870 869 869 869 869 869 868 868 866 865 863 860 860 859 858 856 854 853 851 850 846
878 880 880 881 881 882 881 880 879 878 875 874 871 869 869 869 870 870 869 868 867 866 864 863 861 860 859 857 855 853 851 850 847
879 880 881 881 883 883 883 882 881 880 879 877 873 869 868 869 869 870 870 869 868 867 866 864 862 860 859 857 856 853 852 850 849
879 880 882 882 883 884 884 884 883 883 882 880 879 874 871 874 869 869 869 869 869 868 867 865 863 861 859 857 855 853 851 850 849
879 880 882 883 884 885 885 885 885 885 884 882 881 881 881 878 872 869 869 869 868 867 866 864 863 861 859 857 855 852 850 849 847
880 880 881 882 883 884 884 884 885 884 885 884 881 880 879 878 877 870 869 868 867 866 865 863 862 860 858 856 854 851 849 847 845